Weather History for KMKE - November, 2013

Change the Weather History Date:

Friday, November 22, 2013

  Actual Average Record
Temperature  
Mean Temperature 35 °F 36 °F  
Max Temperature 42 °F 43 °F 66 °F (1913)
Min Temperature 28 °F 29 °F 1 °F (1880)
Degree Days  
Heating Degree Days 30 29  
Month to date heating degree days 514 530  
Since 1 July heating degree days 1054 1115  
Cooling Degree Days 0 0  
Month to date cooling degree days 0 0  
Year to date cooling degree days 688 641  
Moisture  
Dew Point 26 °F    
Average Humidity 69    
Maximum Humidity 85    
Minimum Humidity 52    
Precipitation  
Precipitation 0.03 in 0.10 in 1.06 in (1874)
Month to date precipitation 2.95 2.01  
Year to date precipitation 38.21 32.02  
Snow  
Snow T in 0.10 in 8.80 in (1989)
Month to date snowfall 1.2 1.1  
Since 1 July snowfall 1.2 1.4  
Since 1 September snowfall 1.2 1.4  
Snow Depth 0.00 in    
Sea Level Pressure  
Sea Level Pressure 30.38 in    
Wind  
Wind Speed 10 mph (NW)    
Max Wind Speed 20 mph    
Max Gust Speed 25 mph    
Visibility 8 miles    
Events Rain , Snow    
T = Trace of Precipitation, MM = Missing Value Source: NWS Daily Summary

Daily Weather History Graph

Daily Weather History Graph

Search for Another Location

Airport or City:

Trip Planner

Search our weather history database for the weather conditions in past years. The results will help you decide how hot, cold, wet, or windy it might be!

Date:

Astronomy

Nov. 22, 2013 Rise Set
Actual Time 6:52 AM CST 4:22 PM CST
Civil Twilight 6:21 AM CST 4:53 PM CST
Nautical Twilight 5:46 AM CST 5:28 PM CST
Astronomical Twilight 5:13 AM CST 6:02 PM CST
Moon 8:56 PM CST (11/22) 10:34 AM CST (11/22)
Length of Visible Light 10h 31m
Length of Day
9h 29m
Waning Gibbous, 78% of the Moon is Illuminated
Nov 22
Waning Gibbous
Nov 25
Last Quarter
Dec 2
New
Dec 9
First Quarter
Dec 17
Full

Hourly Weather History & Observations

Time (CST) Temp. Windchill Dew Point Humidity Pressure Visibility Wind Dir Wind Speed Gust Speed Precip Events Conditions
12:15 AM 41.0 °F 35.2 °F 36.0 °F 82% 30.21 in 5.0 mi NNW 9.2 mph - N/A   Haze
12:52 AM 41.0 °F 34.7 °F 35.1 °F 79% 30.24 in 6.0 mi NNW 10.4 mph - N/A   Haze
1:05 AM 41.0 °F 34.3 °F 35.1 °F 79% 30.23 in 6.0 mi NNW 11.5 mph - N/A   Haze
1:52 AM 39.9 °F 32.9 °F 35.1 °F 83% 30.27 in 7.0 mi NW 11.5 mph - N/A   Overcast
2:52 AM 39.9 °F 32.9 °F 35.1 °F 83% 30.27 in 6.0 mi NNW 11.5 mph - N/A   Haze
3:52 AM 37.9 °F 30.9 °F 36.0 °F 93% 30.29 in 3.0 mi NNW 10.4 mph - 0.00 in Rain Light Rain
4:02 AM 37.9 °F 30.5 °F 35.1 °F 89% 30.27 in 4.0 mi North 11.5 mph - 0.01 in Rain Light Rain
4:32 AM 35.1 °F 25.2 °F 33.1 °F 92% 30.28 in 5.0 mi NNW 16.1 mph - 0.02 in Rain , Snow Light Rain
4:52 AM 35.1 °F 28.6 °F 32.0 °F 89% 30.32 in 5.0 mi North 8.1 mph - 0.03 in Rain , Snow Light Rain
5:13 AM 35.1 °F 26.9 °F 32.0 °F 89% 30.30 in 7.0 mi North 11.5 mph - 0.00 in Snow Light Snow
5:52 AM 34.0 °F 26.6 °F 30.9 °F 89% 30.33 in 8.0 mi North 9.2 mph 18.4 mph 0.00 in Snow Light Snow
6:03 AM 34.0 °F 25.0 °F 30.0 °F 85% 30.31 in 7.0 mi North 12.7 mph - 0.00 in Snow Light Snow
6:43 AM 33.1 °F 24.9 °F 30.0 °F 89% 30.34 in 9.0 mi NNW 10.4 mph - 0.00 in   Overcast
6:52 AM 33.1 °F 23.9 °F 28.9 °F 85% 30.37 in 8.0 mi NNW 12.7 mph - 0.00 in Snow Light Snow
7:42 AM 32.0 °F 21.6 °F 28.0 °F 85% 30.38 in 8.0 mi North 15.0 mph - 0.00 in Snow Light Snow
7:52 AM 32.0 °F 22.5 °F 28.0 °F 85% 30.41 in 9.0 mi NNW 12.7 mph - 0.00 in Snow Light Snow
8:45 AM 32.0 °F 21.2 °F 26.1 °F 79% 30.40 in 6.0 mi NNW 16.1 mph - 0.00 in Snow Light Snow
8:52 AM 32.0 °F 22.5 °F 26.1 °F 79% 30.43 in 7.0 mi NNW 12.7 mph 23.0 mph 0.00 in Snow Light Snow
9:52 AM 32.0 °F 21.6 °F 25.0 °F 75% 30.45 in 10.0 mi NNW 15.0 mph 23.0 mph 0.00 in   Overcast
10:52 AM 34.0 °F 26.0 °F 26.1 °F 73% 30.44 in 10.0 mi North 10.4 mph 19.6 mph N/A   Scattered Clouds
11:52 AM 36.0 °F 28.0 °F 25.0 °F 64% 30.43 in 10.0 mi NW 11.5 mph - N/A   Mostly Cloudy
12:52 PM 37.0 °F 29.3 °F 24.1 °F 59% 30.44 in 10.0 mi NW 11.5 mph - N/A   Mostly Cloudy
1:52 PM 37.0 °F 28.9 °F 23.0 °F 57% 30.45 in 10.0 mi NW 12.7 mph - N/A   Mostly Cloudy
2:52 PM 37.0 °F 29.8 °F 21.9 °F 54% 30.47 in 10.0 mi WNW 10.4 mph - N/A   Mostly Cloudy
3:52 PM 35.1 °F 26.4 °F 21.0 °F 57% 30.48 in 10.0 mi WNW 12.7 mph - N/A   Mostly Cloudy
4:52 PM 33.1 °F 26.1 °F 21.0 °F 61% 30.48 in 10.0 mi West 8.1 mph - N/A   Scattered Clouds
5:52 PM 32.0 °F 27.5 °F 21.9 °F 66% 30.46 in 10.0 mi WSW 4.6 mph - N/A   Partly Cloudy
6:52 PM 30.9 °F 24.3 °F 19.9 °F 64% 30.46 in 10.0 mi West 6.9 mph - N/A   Partly Cloudy
7:52 PM 30.9 °F 25.2 °F 19.9 °F 64% 30.45 in 10.0 mi West 5.8 mph - N/A   Clear
8:52 PM 30.0 °F 21.7 °F 18.0 °F 61% 30.44 in 10.0 mi West 9.2 mph - N/A   Partly Cloudy
9:52 PM 28.9 °F 20.4 °F 17.1 °F 61% 30.43 in 10.0 mi West 9.2 mph - N/A   Partly Cloudy
10:52 PM 28.9 °F 20.4 °F 15.1 °F 56% 30.43 in 10.0 mi West 9.2 mph - N/A   Clear
11:52 PM 28.0 °F 20.8 °F 14.0 °F 56% 30.43 in 10.0 mi West 6.9 mph - N/A   Partly Cloudy